Salon, France

6:26 PM CET on February 25, 2017 (GMT +0100)
Salon Air Base

Weather History for LFMY - July, 2013

Change the Weather History Date:

Thursday, July 4, 2013

  Actual Average (LFML) Record (LFML)
Temperature  
Mean Temperature 77 °F -  
Max Temperature 86 °F 83 °F 96 °F (2015)
Min Temperature 68 °F 65 °F 59 °F (1997)
Cooling Degree Days 12    
Growing Degree Days 27 (Base 50)    
Moisture  
Dew Point 55 °F    
Average Humidity 51    
Maximum Humidity 73    
Minimum Humidity 30    
Precipitation  
Precipitation 0.00 in - - ()
Sea Level Pressure  
Sea Level Pressure 30.03 in    
Wind  
Wind Speed 11 mph ()    
Max Wind Speed 24 mph    
Max Gust Speed 36 mph    
Visibility 6.2 miles    
Events      
Averages and records for this station are not official NWS values.
T = Trace of Precipitation, MM = Missing Value Source: Averaged Metar Reports

Daily Weather History Graph

Daily Weather History Graph

Search for Another Location

Airport or City:

Trip Planner

Search our weather history database for the weather conditions in past years. The results will help you decide how hot, cold, wet, or windy it might be!

Date:

Astronomy

Jul. 04, 2013 Rise Set
Actual Time 6:03 AM CEST 9:23 PM CEST
Civil Twilight 5:28 AM CEST 9:59 PM CEST
Nautical Twilight 4:42 AM CEST 10:45 PM CEST
Astronomical Twilight 3:44 AM CEST 11:42 PM CEST
Moon 3:12 AM CEST (7/4) 6:12 PM CEST (7/4)
Length of Visible Light 16h 31m
Length of Day
15h 20m
Waning Crescent, 13% of the Moon is Illuminated
Jul 4
Waning Crescent
Jul 8
New
Jul 16
First Quarter
Jul 22
Full
Jul 29
Last Quarter

Hourly Weather History & Observations

Time (CEST) Temp. Heat Index Dew Point Humidity Pressure Visibility Wind Dir Wind Speed Gust Speed Precip Events Conditions
12:00 AM 69.8 °F - 60.8 °F 73% 30.01 in 6.2 mi WNW 4.6 mph - N/A   Unknown
12:30 AM 69.8 °F - 60.8 °F 73% 30.01 in 6.2 mi NW 4.6 mph - N/A   Unknown
1:00 AM 68.0 °F - 59.0 °F 73% 30.01 in 6.2 mi Variable 2.3 mph - N/A   Unknown
1:30 AM 68.0 °F - 59.0 °F 73% 30.01 in 6.2 mi West 4.6 mph - N/A   Unknown
2:00 AM 68.0 °F - 59.0 °F 73% 30.01 in 6.2 mi WSW 4.6 mph - N/A   Unknown
2:30 AM 68.0 °F - 57.2 °F 68% 30.01 in 6.2 mi SSW 4.6 mph - N/A   Unknown
3:00 AM 68.0 °F - 57.2 °F 68% 30.01 in 6.2 mi West 5.8 mph - N/A   Unknown
3:30 AM 68.0 °F - 59.0 °F 73% 30.01 in 6.2 mi NW 9.2 mph - N/A   Unknown
4:00 AM 68.0 °F - 57.2 °F 68% 30.01 in 6.2 mi WNW 6.9 mph - N/A   Unknown
4:30 AM 69.8 °F - 57.2 °F 64% 29.98 in 6.2 mi NW 10.4 mph - N/A   Unknown
5:00 AM 69.8 °F - 57.2 °F 64% 29.98 in 6.2 mi NW 10.4 mph - N/A   Unknown
5:30 AM 68.0 °F - 55.4 °F 64% 29.98 in 6.2 mi NW 17.3 mph - N/A   Unknown
6:00 AM 68.0 °F - 55.4 °F 64% 30.01 in 6.2 mi NW 8.1 mph - N/A   Unknown
6:30 AM 68.0 °F - 55.4 °F 64% 30.01 in 6.2 mi Variable 2.3 mph - N/A   Unknown
7:00 AM 68.0 °F - 55.4 °F 64% 30.01 in 6.2 mi WNW 5.8 mph - N/A   Unknown
7:30 AM 68.0 °F - 55.4 °F 64% 30.04 in 6.2 mi NNW 10.4 mph - N/A   Unknown
8:00 AM 68.0 °F - 57.2 °F 68% 30.04 in 6.2 mi NNW 11.5 mph - N/A   Unknown
8:30 AM 69.8 °F - 57.2 °F 64% 30.04 in 6.2 mi NNW 13.8 mph - N/A   Unknown
9:00 AM 71.6 °F - 57.2 °F 60% 30.04 in 6.2 mi NNW 13.8 mph - N/A   Unknown
9:30 AM 73.4 °F - 55.4 °F 53% 30.04 in 6.2 mi NNW 17.3 mph - N/A   Unknown
10:00 AM 75.2 °F - 55.4 °F 50% 30.04 in 6.2 mi NNW 17.3 mph - N/A   Unknown
10:30 AM 75.2 °F - 53.6 °F 47% 30.04 in 6.2 mi NNW 21.9 mph - N/A   Unknown
11:00 AM 75.2 °F - 55.4 °F 50% 30.04 in 6.2 mi NNW 18.4 mph - N/A   Unknown
11:30 AM 77.0 °F - 55.4 °F 47% 30.04 in 6.2 mi NNW 19.6 mph - N/A   Unknown
12:00 PM 78.8 °F - 55.4 °F 44% 30.04 in 6.2 mi NNW 17.3 mph - N/A   Unknown
12:30 PM 78.8 °F - 55.4 °F 44% 30.04 in 6.2 mi NNW 19.6 mph - N/A   Unknown
1:00 PM 80.6 °F 80.8 °F 57.2 °F 45% 30.04 in 6.2 mi NNW 18.4 mph - N/A   Unknown
1:30 PM 82.4 °F 81.7 °F 55.4 °F 39% 30.04 in 6.2 mi NNW 18.4 mph - N/A   Unknown
2:00 PM 82.4 °F 81.7 °F 55.4 °F 39% 30.04 in 6.2 mi NNW 17.3 mph - N/A   Unknown
2:30 PM 84.2 °F 83.0 °F 55.4 °F 37% 30.04 in 6.2 mi NNW 15.0 mph - N/A   Unknown
3:00 PM 84.2 °F 83.0 °F 55.4 °F 37% 30.04 in 6.2 mi NW 12.7 mph - N/A   Unknown
3:30 PM 86.0 °F 84.5 °F 55.4 °F 35% 30.04 in 6.2 mi NNW 15.0 mph - N/A   Unknown
4:00 PM 86.0 °F 84.5 °F 55.4 °F 35% 30.04 in 6.2 mi NNW 19.6 mph - N/A   Unknown
4:30 PM 84.2 °F 82.8 °F 53.6 °F 35% 30.04 in 6.2 mi NNW 17.3 mph - N/A   Unknown
5:00 PM 84.2 °F 82.8 °F 53.6 °F 35% 30.04 in 6.2 mi NNW 19.6 mph - N/A   Unknown
5:30 PM 84.2 °F 82.8 °F 53.6 °F 35% 30.04 in 6.2 mi NNW 19.6 mph - N/A   Unknown
6:00 PM 84.2 °F - 51.8 °F 33% 30.04 in 6.2 mi NNW 20.7 mph - N/A   Unknown
6:30 PM 82.4 °F - 50.0 °F 32% 30.04 in 6.2 mi NNW 20.7 mph 32.2 mph N/A   Unknown
7:00 PM 82.4 °F - 50.0 °F 32% 30.04 in 6.2 mi NNW 17.3 mph - N/A   Unknown
7:30 PM 82.4 °F - 48.2 °F 30% 30.04 in 6.2 mi NNW 15.0 mph - N/A   Unknown
8:00 PM 80.6 °F - 46.4 °F 30% 30.04 in 6.2 mi NNW 24.2 mph 35.7 mph N/A   Unknown
8:30 PM 78.8 °F - 48.2 °F 34% 30.04 in 6.2 mi NNW 21.9 mph - N/A   Unknown
9:00 PM 77.0 °F - 48.2 °F 36% 30.04 in 6.2 mi NNW 21.9 mph - N/A   Unknown
9:30 PM 75.2 °F - 50.0 °F 41% 30.06 in 6.2 mi NNW 23.0 mph - N/A   Unknown
10:00 PM 73.4 °F - 48.2 °F 41% 30.06 in 6.2 mi NNW 23.0 mph - N/A   Unknown
10:30 PM 73.4 °F - 50.0 °F 44% 30.06 in 6.2 mi NNW 21.9 mph - N/A   Unknown
11:00 PM 71.6 °F - 50.0 °F 46% 30.09 in 6.2 mi NNW 20.7 mph - N/A   Unknown
11:30 PM 71.6 °F - 50.0 °F 46% 30.09 in 6.2 mi NNW 19.6 mph - N/A   Unknown